Location: Remedello Sotto
(45.2500°N, 10.3667°E)
Time: 11:27:17
(UTC+00:00)

CZ-4 R/B - Pass Details

Date: 03 February 2023
Orbit: 525 x 587 km, 97.7° (Epoch: 21 March)

Event Time Altitude Azimuth Distance (km) Brightness Sun altitude
Rises 19:36:32 0° 210° (SSW) 2,802 5.2 -33.3°
Maximum altitude 19:41:52 15° 269° (W) 1,622 4.4 -34.2°
Drops below altitude 10° 19:44:10 10° 303° (WNW) 1,892 4.7 -34.6°
Sets 19:47:12 0° 328° (NNW) 2,783 5.5 -35.1°
